* Astronomy

Members Login
Username 
 
Password 
    Remember Me  
Post Info TOPIC: Asteroid 2015 EO61


L

Posts: 131433
Date:
RE: Asteroid 2015 EO61
Permalink  
 


Orbital elements:
2015 EO61                                           PHA, Earth MOID = 0.0102 AU
Epoch 2016 Jan. 13.0 TT = JDT 2457400.5                 MPC
M 122.18915              (2000.0)            P               Q
n   0.56146973     Peri.  261.32068     +0.57330200     +0.81899689
a   1.4551859      Node    43.68861     -0.73750248     +0.52850040
e   0.7344234      Incl.    1.97888     -0.35695225     +0.22345342
P   1.76           H   21.5           G   0.15           U   4

MPEC 2016 - B73



__________________


L

Posts: 131433
Date:
Permalink  
 

Orbital elements:
2015 EO61                                           PHA, Earth MOID = 0.0092 AU
Epoch 2015 June 27.0 TT = JDT 2457200.5                 MPC
M   9.84766              (2000.0)            P               Q
n   0.57278112     Peri.  260.71800     +0.56720180     +0.82324057
a   1.4359641      Node    43.86494     -0.74161806     +0.52300874
e   0.7235718      Incl.    1.95190     -0.35816864     +0.22076418
P   1.72           H   21.4           G   0.15           U   9

MPEC 2015 - F50



__________________
Page 1 of 1  sorted by
 
Quick Reply

Please log in to post quick replies.



Create your own FREE Forum
Report Abuse
Powered by ActiveBoard